MORELOS 3

Last updated on Sat Dec 13 2025 00:02:49 GMT+0000 (Coordinated Universal Time)

1 40946U 15056A 25346.25391898 -.00000035 00000+0 00000+0 0 9992 2 40946 3.0583 9.6446 0001076 198.4326 211.4517 1.00270504 37415
UTC large
Height (km)
Speed (km/s)
/
Latitude / Longitude
Inclination (degrees)
Orbital Period (minutes)
Azimuth
Elevation
Range (km)
Doppler Factor

Next 0 passes for location: London (51.5072 / 0.1276)

Sorry there are no passes over London.